Time,TemperatureF,DewpointF,PressureIn,WindDirection,WindDirectionDegrees,WindSpeedMPH,WindSpeedGustMPH,Humidity,HourlyPrecipIn,Conditions,Clouds,dailyrainin,SoftwareType,DateUTC
2013-03-16 00:00:00,63.0,43.0,29.93,West,267,8.0,16.0,48,0.00,,SKC,0.00,VWS V13.00,2013-03-16 05:00:00,
2013-03-16 00:05:00,63.0,43.0,29.92,SW,227,6.0,13.0,48,0.00,,SKC,0.00,VWS V13.00,2013-03-16 05:05:00,
2013-03-16 00:10:00,62.8,42.8,29.92,West,261,8.0,14.0,48,0.00,,SKC,0.00,VWS V13.00,2013-03-16 05:10:00,
2013-03-16 00:15:00,62.8,43.4,29.92,WSW,242,6.0,15.0,49,0.00,,SKC,0.00,VWS V13.00,2013-03-16 05:15:00,
2013-03-16 00:20:00,62.7,43.3,29.92,WSW,244,7.0,19.0,49,0.00,,SKC,0.00,VWS V13.00,2013-03-16 05:20:00,
2013-03-16 00:25:00,62.5,43.1,29.92,SW,234,6.0,19.0,49,0.00,,SKC,0.00,VWS V13.00,2013-03-16 05:25:00,
2013-03-16 00:30:00,62.6,43.2,29.92,SW,229,15.0,22.0,49,0.00,,SKC,0.00,VWS V13.00,2013-03-16 05:30:00,
2013-03-16 00:35:00,62.8,43.4,29.92,SW,224,8.0,12.0,49,0.00,,SKC,0.00,VWS V13.00,2013-03-16 05:35:00,
2013-03-16 00:40:00,62.7,43.3,29.92,West,259,10.0,18.0,49,0.00,,SKC,0.00,VWS V13.00,2013-03-16 05:40:00,
2013-03-16 00:45:00,62.8,43.4,29.92,WSW,238,8.0,23.0,49,0.00,,SKC,0.00,VWS V13.00,2013-03-16 05:45:00,
2013-03-16 00:50:00,62.5,43.1,29.92,WSW,246,8.0,23.0,49,0.00,,SKC,0.00,VWS V13.00,2013-03-16 05:50:00,
2013-03-16 00:55:00,62.4,43.5,29.92,WSW,253,6.0,23.0,50,0.00,,SKC,0.00,VWS V13.00,2013-03-16 05:55:00,
2013-03-16 01:00:00,62.2,43.3,29.92,WSW,245,10.0,23.0,50,0.00,,SKC,0.00,VWS V13.00,2013-03-16 06:00:00,
2013-03-16 01:05:00,62.0,43.2,29.92,SW,232,11.0,14.0,50,0.00,,SKC,0.00,VWS V13.00,2013-03-16 06:05:00,
2013-03-16 01:10:00,61.9,43.6,29.92,SW,236,5.0,18.0,51,0.00,,SKC,0.00,VWS V13.00,2013-03-16 06:10:00,
2013-03-16 01:15:00,61.8,43.5,29.92,West,270,11.0,20.0,51,0.00,,SKC,0.00,VWS V13.00,2013-03-16 06:15:00,
2013-03-16 01:20:00,61.6,43.3,29.92,WSW,246,4.0,20.0,51,0.00,,SKC,0.00,VWS V13.00,2013-03-16 06:20:00,
2013-03-16 01:25:00,61.3,43.5,29.92,West,267,7.0,20.0,52,0.00,,SKC,0.00,VWS V13.00,2013-03-16 06:25:00,
2013-03-16 01:30:00,61.3,43.5,29.92,SW,223,7.0,20.0,52,0.00,,SKC,0.00,VWS V13.00,2013-03-16 06:30:00,
2013-03-16 01:35:00,61.3,43.5,29.92,SW,236,10.0,15.0,52,0.00,,SKC,0.00,VWS V13.00,2013-03-16 06:35:00,
2013-03-16 01:40:00,61.2,43.5,29.92,West,261,14.0,15.0,52,0.00,,SKC,0.00,VWS V13.00,2013-03-16 06:40:00,
2013-03-16 01:45:00,61.2,43.5,29.92,West,270,6.0,22.0,52,0.00,,SKC,0.00,VWS V13.00,2013-03-16 06:45:00,
2013-03-16 01:50:00,60.9,43.2,29.92,West,265,7.0,22.0,52,0.00,,SKC,0.00,VWS V13.00,2013-03-16 06:50:00,
2013-03-16 01:55:00,60.9,43.2,29.92,West,263,7.0,22.0,52,0.00,,SKC,0.00,VWS V13.00,2013-03-16 06:55:00,
2013-03-16 02:00:00,60.8,43.6,29.92,West,261,7.0,22.0,53,0.00,,SKC,0.00,VWS V13.00,2013-03-16 07:00:00,
2013-03-16 02:05:00,60.7,43.5,29.92,West,262,7.0,20.0,53,0.00,,SKC,0.00,VWS V13.00,2013-03-16 07:05:00,
2013-03-16 02:10:00,60.5,43.3,29.92,WSW,258,7.0,20.0,53,0.00,,SKC,0.00,VWS V13.00,2013-03-16 07:10:00,
2013-03-16 02:15:00,60.3,43.6,29.92,WNW,290,7.0,20.0,54,0.00,,SKC,0.00,VWS V13.00,2013-03-16 07:15:00,
2013-03-16 02:19:00,60.0,43.3,29.92,WSW,252,3.0,20.0,54,0.00,,SKC,0.00,VWS V13.00,2013-03-16 07:19:00,
2013-03-16 02:24:00,59.9,43.7,29.92,WSW,253,2.0,20.0,55,0.00,,SKC,0.00,VWS V13.00,2013-03-16 07:24:00,
2013-03-16 02:29:00,59.7,43.5,29.92,WSW,251,9.0,20.0,55,0.00,,SKC,0.00,VWS V13.00,2013-03-16 07:29:00,
2013-03-16 02:34:00,59.6,43.4,29.92,WSW,252,4.0,12.0,55,0.00,,SKC,0.00,VWS V13.00,2013-03-16 07:34:00,
2013-03-16 02:39:00,59.5,43.3,29.92,SW,221,5.0,13.0,55,0.00,,SKC,0.00,VWS V13.00,2013-03-16 07:39:00,
2013-03-16 02:44:00,59.5,43.8,29.91,West,259,6.0,16.0,56,0.00,,SKC,0.00,VWS V13.00,2013-03-16 07:44:00,
2013-03-16 02:49:00,59.5,43.8,29.91,WSW,241,6.0,20.0,56,0.00,,SKC,0.00,VWS V13.00,2013-03-16 07:49:00,
2013-03-16 02:54:00,59.4,43.7,29.92,West,269,8.0,20.0,56,0.00,,SKC,0.00,VWS V13.00,2013-03-16 07:54:00,
2013-03-16 02:59:00,59.2,43.5,29.91,WSW,238,6.0,20.0,56,0.00,,SKC,0.00,VWS V13.00,2013-03-16 07:59:00,
2013-03-16 03:04:00,59.1,43.9,29.91,WSW,241,9.0,16.0,57,0.00,,SKC,0.00,VWS V13.00,2013-03-16 08:04:00,
2013-03-16 03:09:00,59.0,43.8,29.91,SW,233,6.0,16.0,57,0.00,,SKC,0.00,VWS V13.00,2013-03-16 08:09:00,
2013-03-16 03:14:00,58.8,44.1,29.91,SW,225,7.0,16.0,58,0.00,,SKC,0.00,VWS V13.00,2013-03-16 08:14:00,
2013-03-16 03:19:00,58.8,43.6,29.91,SW,234,7.0,16.0,57,0.00,,SKC,0.00,VWS V13.00,2013-03-16 08:19:00,
2013-03-16 03:24:00,58.7,43.5,29.91,WSW,248,5.0,16.0,57,0.00,,SKC,0.00,VWS V13.00,2013-03-16 08:24:00,
2013-03-16 03:29:00,58.6,43.9,29.91,WSW,249,7.0,16.0,58,0.00,,SKC,0.00,VWS V13.00,2013-03-16 08:29:00,
2013-03-16 03:34:00,58.5,43.8,29.91,West,278,7.0,10.0,58,0.00,,SKC,0.00,VWS V13.00,2013-03-16 08:34:00,
2013-03-16 03:39:00,58.4,43.7,29.91,WSW,246,4.0,14.0,58,0.00,,SKC,0.00,VWS V13.00,2013-03-16 08:39:00,
2013-03-16 03:44:00,58.4,43.7,29.91,SW,232,4.0,14.0,58,0.00,,SKC,0.00,VWS V13.00,2013-03-16 08:44:00,
2013-03-16 03:49:00,58.2,43.5,29.91,WSW,246,7.0,15.0,58,0.00,,SKC,0.00,VWS V13.00,2013-03-16 08:49:00,
2013-03-16 03:54:00,58.0,43.8,29.91,WSW,244,1.0,15.0,59,0.00,,SKC,0.00,VWS V13.00,2013-03-16 08:54:00,
2013-03-16 03:59:00,57.8,44.0,29.91,WSW,246,7.0,15.0,60,0.00,,SKC,0.00,VWS V13.00,2013-03-16 08:59:00,
2013-03-16 04:04:00,57.5,43.7,29.91,SW,219,5.0,10.0,60,0.00,,SKC,0.00,VWS V13.00,2013-03-16 09:04:00,
2013-03-16 04:09:00,57.4,43.6,29.91,West,259,5.0,10.0,60,0.00,,SKC,0.00,VWS V13.00,2013-03-16 09:09:00,
2013-03-16 04:14:00,57.3,43.5,29.91,SSW,207,5.0,13.0,60,0.00,,SKC,0.00,VWS V13.00,2013-03-16 09:14:00,
2013-03-16 04:19:00,57.1,43.8,29.91,SW,220,6.0,13.0,61,0.00,,SKC,0.00,VWS V13.00,2013-03-16 09:19:00,
2013-03-16 04:24:00,57.1,43.8,29.91,SSW,207,5.0,13.0,61,0.00,,SKC,0.00,VWS V13.00,2013-03-16 09:24:00,
2013-03-16 04:29:00,56.8,43.5,29.91,WSW,241,7.0,13.0,61,0.00,,SKC,0.00,VWS V13.00,2013-03-16 09:29:00,
2013-03-16 04:34:00,56.6,43.8,29.92,WSW,246,1.0,6.0,62,0.00,,SKC,0.00,VWS V13.00,2013-03-16 09:34:00,
2013-03-16 04:39:00,56.4,43.6,29.92,WNW,282,2.0,9.0,62,0.00,,SKC,0.00,VWS V13.00,2013-03-16 09:39:00,
2013-03-16 04:44:00,56.3,43.5,29.92,SW,222,6.0,10.0,62,0.00,,SKC,0.00,VWS V13.00,2013-03-16 09:44:00,
2013-03-16 04:49:00,56.2,43.8,29.92,WSW,246,5.0,10.0,63,0.00,,SKC,0.00,VWS V13.00,2013-03-16 09:49:00,
2013-03-16 04:54:00,56.1,43.7,29.92,SW,230,4.0,10.0,63,0.00,,SKC,0.00,VWS V13.00,2013-03-16 09:54:00,
2013-03-16 04:59:00,55.8,43.4,29.92,WSW,254,3.0,10.0,63,0.00,,SKC,0.00,VWS V13.00,2013-03-16 09:59:00,
2013-03-16 05:04:00,55.7,43.7,29.93,WSW,252,0.0,5.0,64,0.00,,SKC,0.00,VWS V13.00,2013-03-16 10:04:00,
2013-03-16 05:09:00,55.6,43.6,29.93,WSW,250,5.0,8.0,64,0.00,,SKC,0.00,VWS V13.00,2013-03-16 10:09:00,
2013-03-16 05:14:00,55.6,43.6,29.93,SW,232,1.0,8.0,64,0.00,,SKC,0.00,VWS V13.00,2013-03-16 10:14:00,
2013-03-16 05:19:00,55.4,43.4,29.93,SSW,208,1.0,8.0,64,0.00,,SKC,0.00,VWS V13.00,2013-03-16 10:19:00,
2013-03-16 05:24:00,55.4,43.4,29.93,SSW,207,2.0,11.0,64,0.00,,SKC,0.00,VWS V13.00,2013-03-16 10:24:00,
2013-03-16 05:29:00,55.4,43.4,29.93,WNW,282,2.0,11.0,64,0.00,,SKC,0.00,VWS V13.00,2013-03-16 10:29:00,
2013-03-16 05:34:00,55.3,43.8,29.93,SW,227,1.0,6.0,65,0.00,,SKC,0.00,VWS V13.00,2013-03-16 10:34:00,
2013-03-16 05:39:00,55.1,43.6,29.94,SW,224,7.0,11.0,65,0.00,,SKC,0.00,VWS V13.00,2013-03-16 10:39:00,
2013-03-16 05:44:00,55.1,43.6,29.94,SW,236,2.0,11.0,65,0.00,,SKC,0.00,VWS V13.00,2013-03-16 10:44:00,
2013-03-16 05:49:00,55.0,43.9,29.94,West,265,4.0,11.0,66,0.00,,SKC,0.00,VWS V13.00,2013-03-16 10:49:00,
2013-03-16 05:54:00,54.9,43.8,29.94,WSW,252,2.0,11.0,66,0.00,,SKC,0.00,VWS V13.00,2013-03-16 10:54:00,
2013-03-16 05:59:00,55.0,43.9,29.95,West,265,2.0,11.0,66,0.00,,SKC,0.00,VWS V13.00,2013-03-16 10:59:00,
2013-03-16 06:04:00,54.7,43.6,29.95,WSW,238,4.0,8.0,66,0.00,,SKC,0.00,VWS V13.00,2013-03-16 11:04:00,
2013-03-16 06:09:00,54.5,43.8,29.95,SW,233,1.0,8.0,67,0.00,,SKC,0.00,VWS V13.00,2013-03-16 11:09:00,
2013-03-16 06:14:00,54.4,43.7,29.95,WSW,256,4.0,9.0,67,0.00,,SKC,0.00,VWS V13.00,2013-03-16 11:14:00,
2013-03-16 06:19:00,54.2,43.9,29.95,WSW,258,2.0,9.0,68,0.00,,SKC,0.00,VWS V13.00,2013-03-16 11:19:00,
2013-03-16 06:24:00,54.1,43.8,29.95,WSW,241,6.0,9.0,68,0.00,,SKC,0.00,VWS V13.00,2013-03-16 11:24:00,
2013-03-16 06:29:00,53.9,44.0,29.95,West,278,8.0,9.0,69,0.00,,SKC,0.00,VWS V13.00,2013-03-16 11:29:00,
2013-03-16 06:34:00,53.9,44.0,29.95,SW,221,4.0,12.0,69,0.00,,SKC,0.00,VWS V13.00,2013-03-16 11:34:00,
2013-03-16 06:39:00,53.9,44.0,29.95,West,271,1.0,12.0,69,0.00,,SKC,0.00,VWS V13.00,2013-03-16 11:39:00,
2013-03-16 06:44:00,53.7,43.8,29.95,WSW,253,4.0,12.0,69,0.00,,SKC,0.00,VWS V13.00,2013-03-16 11:44:00,
2013-03-16 06:49:00,53.5,44.0,29.95,WSW,242,5.0,12.0,70,0.00,,SKC,0.00,VWS V13.00,2013-03-16 11:49:00,
2013-03-16 06:54:00,53.4,43.9,29.96,WSW,243,4.0,12.0,70,0.00,,SKC,0.00,VWS V13.00,2013-03-16 11:54:00,
2013-03-16 06:59:00,53.4,44.2,29.96,West,276,6.0,12.0,71,0.00,,SKC,0.00,VWS V13.00,2013-03-16 11:59:00,
2013-03-16 07:04:00,53.3,44.2,29.96,SW,217,6.0,7.0,71,0.00,,SKC,0.00,VWS V13.00,2013-03-16 12:04:00,
2013-03-16 07:09:00,53.2,44.0,29.96,West,268,3.0,9.0,71,0.00,,SKC,0.00,VWS V13.00,2013-03-16 12:09:00,
2013-03-16 07:14:00,53.2,44.0,29.96,West,269,5.0,9.0,71,0.00,,SKC,0.00,VWS V13.00,2013-03-16 12:14:00,
2013-03-16 07:19:00,53.2,44.0,29.96,WSW,252,4.0,9.0,71,0.00,,SKC,0.00,VWS V13.00,2013-03-16 12:19:00,
2013-03-16 07:24:00,53.2,44.0,29.97,WSW,250,5.0,9.0,71,0.00,,SKC,0.00,VWS V13.00,2013-03-16 12:24:00,
2013-03-16 07:29:00,53.6,44.4,29.96,WSW,250,5.0,11.0,71,0.00,,SKC,0.00,VWS V13.00,2013-03-16 12:29:00,
2013-03-16 07:34:00,54.0,44.5,29.96,West,261,5.0,6.0,70,0.00,,SKC,0.00,VWS V13.00,2013-03-16 12:34:00,
2013-03-16 07:39:00,54.3,44.7,29.96,SW,232,4.0,12.0,70,0.00,,SKC,0.00,VWS V13.00,2013-03-16 12:39:00,
2013-03-16 07:44:00,54.4,44.5,29.96,West,269,7.0,12.0,69,0.00,,SKC,0.00,VWS V13.00,2013-03-16 12:44:00,
2013-03-16 07:49:00,54.5,44.5,29.96,West,265,2.0,12.0,69,0.00,,SKC,0.00,VWS V13.00,2013-03-16 12:49:00,
2013-03-16 07:54:00,54.8,44.8,29.96,WSW,237,7.0,12.0,69,0.00,,SKC,0.00,VWS V13.00,2013-03-16 12:54:00,
2013-03-16 07:59:00,55.1,44.7,29.96,SW,234,6.0,12.0,68,0.00,,SKC,0.00,VWS V13.00,2013-03-16 12:59:00,
2013-03-16 08:04:00,55.4,45.0,29.96,WSW,258,8.0,10.0,68,0.00,,SKC,0.00,VWS V13.00,2013-03-16 13:04:00,
2013-03-16 08:09:00,55.8,45.0,29.96,West,276,5.0,11.0,67,0.00,,SKC,0.00,VWS V13.00,2013-03-16 13:09:00,
2013-03-16 08:14:00,56.1,44.9,29.96,West,263,7.0,12.0,66,0.00,,SKC,0.00,VWS V13.00,2013-03-16 13:14:00,
2013-03-16 08:19:00,56.4,44.8,29.96,SW,224,5.0,12.0,65,0.00,,SKC,0.00,VWS V13.00,2013-03-16 13:19:00,
2013-03-16 08:24:00,56.8,45.2,29.96,West,276,16.0,16.0,65,0.00,,SKC,0.00,VWS V13.00,2013-03-16 13:24:00,
2013-03-16 08:29:00,57.2,44.7,29.96,WSW,252,6.0,16.0,63,0.00,,SKC,0.00,VWS V13.00,2013-03-16 13:29:00,
2013-03-16 08:34:00,57.5,45.0,29.96,WSW,243,9.0,10.0,63,0.00,,SKC,0.00,VWS V13.00,2013-03-16 13:34:00,
2013-03-16 08:39:00,57.9,45.4,29.96,WSW,251,8.0,16.0,63,0.00,,SKC,0.00,VWS V13.00,2013-03-16 13:39:00,
2013-03-16 08:44:00,58.1,44.7,29.96,WSW,250,4.0,16.0,61,0.00,,SKC,0.00,VWS V13.00,2013-03-16 13:44:00,
2013-03-16 08:49:00,58.2,44.4,29.96,WSW,247,5.0,18.0,60,0.00,,SKC,0.00,VWS V13.00,2013-03-16 13:49:00,
2013-03-16 08:54:00,58.5,44.7,29.96,SW,232,7.0,18.0,60,0.00,,SKC,0.00,VWS V13.00,2013-03-16 13:54:00,
2013-03-16 08:59:00,59.1,44.8,29.96,West,267,10.0,18.0,59,0.00,,SKC,0.00,VWS V13.00,2013-03-16 13:59:00,
2013-03-16 09:04:00,59.5,44.7,29.96,WSW,248,11.0,13.0,58,0.00,,SKC,0.00,VWS V13.00,2013-03-16 14:04:00,
2013-03-16 09:09:00,59.8,44.1,29.96,WSW,250,4.0,16.0,56,0.00,,SKC,0.00,VWS V13.00,2013-03-16 14:09:00,
2013-03-16 09:14:00,60.2,44.9,29.96,West,269,12.0,18.0,57,0.00,,SKC,0.00,VWS V13.00,2013-03-16 14:14:00,
2013-03-16 09:19:00,60.5,45.2,29.96,West,267,9.0,18.0,57,0.00,,SKC,0.00,VWS V13.00,2013-03-16 14:19:00,
2013-03-16 09:24:00,60.9,44.6,29.96,WSW,252,8.0,18.0,55,0.00,,SKC,0.00,VWS V13.00,2013-03-16 14:24:00,
2013-03-16 09:29:00,61.2,44.0,29.96,West,278,5.0,18.0,53,0.00,,SKC,0.00,VWS V13.00,2013-03-16 14:29:00,
2013-03-16 09:34:00,61.3,44.0,29.95,WSW,257,10.0,16.0,53,0.00,,SKC,0.00,VWS V13.00,2013-03-16 14:34:00,
2013-03-16 09:39:00,61.7,44.4,29.95,WNW,289,12.0,19.0,53,0.00,,SKC,0.00,VWS V13.00,2013-03-16 14:39:00,
2013-03-16 09:44:00,62.3,44.5,29.95,West,273,8.0,19.0,52,0.00,,SKC,0.00,VWS V13.00,2013-03-16 14:44:00,
2013-03-16 09:49:00,63.0,44.6,29.95,WNW,289,8.0,19.0,51,0.00,,SKC,0.00,VWS V13.00,2013-03-16 14:49:00,
2013-03-16 09:54:00,63.1,43.1,29.95,WNW,283,13.0,22.0,48,0.00,,SKC,0.00,VWS V13.00,2013-03-16 14:54:00,
2013-03-16 09:59:00,63.2,42.7,29.95,West,271,7.0,22.0,47,0.00,,SKC,0.00,VWS V13.00,2013-03-16 14:59:00,
2013-03-16 10:04:00,63.2,43.2,29.94,West,278,7.0,18.0,48,0.00,,SKC,0.00,VWS V13.00,2013-03-16 15:04:00,
2013-03-16 10:09:00,63.6,43.6,29.94,WSW,240,14.0,20.0,48,0.00,,SKC,0.00,VWS V13.00,2013-03-16 15:09:00,
2013-03-16 10:14:00,63.7,43.1,29.94,WNW,286,10.0,20.0,47,0.00,,SKC,0.00,VWS V13.00,2013-03-16 15:14:00,
2013-03-16 10:19:00,64.1,42.9,29.94,WNW,296,12.0,24.0,46,0.00,,SKC,0.00,VWS V13.00,2013-03-16 15:19:00,
2013-03-16 10:24:00,64.5,43.8,29.94,West,262,6.0,24.0,47,0.00,,SKC,0.00,VWS V13.00,2013-03-16 15:24:00,
2013-03-16 10:29:00,65.0,43.7,29.94,WSW,256,10.0,24.0,46,0.00,,SKC,0.00,VWS V13.00,2013-03-16 15:29:00,
2013-03-16 10:34:00,65.0,43.7,29.93,West,279,11.0,18.0,46,0.00,,SKC,0.00,VWS V13.00,2013-03-16 15:34:00,
2013-03-16 10:39:00,65.2,43.3,29.94,West,275,16.0,21.0,45,0.00,,SKC,0.00,VWS V13.00,2013-03-16 15:39:00,
2013-03-16 10:44:00,65.2,43.3,29.93,West,281,10.0,21.0,45,0.00,,SKC,0.00,VWS V13.00,2013-03-16 15:44:00,
2013-03-16 10:49:00,65.6,44.3,29.93,West,275,10.0,21.0,46,0.00,,SKC,0.00,VWS V13.00,2013-03-16 15:49:00,
2013-03-16 10:54:00,65.9,44.0,29.93,West,266,8.0,21.0,45,0.00,,SKC,0.00,VWS V13.00,2013-03-16 15:54:00,
2013-03-16 10:59:00,66.0,44.1,29.93,WNW,299,10.0,21.0,45,0.00,,SKC,0.00,VWS V13.00,2013-03-16 15:59:00,
2013-03-16 11:04:00,66.1,43.6,29.93,WNW,286,16.0,18.0,44,0.00,,SKC,0.00,VWS V13.00,2013-03-16 16:04:00,
2013-03-16 11:09:00,66.2,43.7,29.93,West,274,12.0,19.0,44,0.00,,SKC,0.00,VWS V13.00,2013-03-16 16:09:00,
2013-03-16 11:14:00,66.1,44.2,29.93,West,275,12.0,19.0,45,0.00,,SKC,0.00,VWS V13.00,2013-03-16 16:14:00,
2013-03-16 11:19:00,66.8,45.4,29.92,WSW,244,11.0,19.0,46,0.00,,SKC,0.00,VWS V13.00,2013-03-16 16:19:00,
2013-03-16 11:24:00,67.0,45.0,29.92,West,271,14.0,19.0,45,0.00,,SKC,0.00,VWS V13.00,2013-03-16 16:24:00,
2013-03-16 11:29:00,67.2,44.0,29.92,SW,227,8.0,20.0,43,0.00,,SKC,0.00,VWS V13.00,2013-03-16 16:29:00,
2013-03-16 11:34:00,67.5,44.2,29.92,West,274,12.0,18.0,43,0.00,,SKC,0.00,VWS V13.00,2013-03-16 16:34:00,
2013-03-16 11:39:00,67.6,44.3,29.92,West,277,8.0,20.0,43,0.00,,SKC,0.00,VWS V13.00,2013-03-16 16:39:00,
2013-03-16 11:44:00,67.8,44.5,29.92,SSW,210,13.0,20.0,43,0.00,,SKC,0.00,VWS V13.00,2013-03-16 16:44:00,
2013-03-16 11:49:00,67.8,42.6,29.92,SW,235,9.0,21.0,40,0.00,,SKC,0.00,VWS V13.00,2013-03-16 16:49:00,
2013-03-16 11:54:00,67.9,43.4,29.92,WNW,287,9.0,21.0,41,0.00,,SKC,0.00,VWS V13.00,2013-03-16 16:54:00,
2013-03-16 11:59:00,68.1,42.9,29.92,West,263,14.0,21.0,40,0.00,,SKC,0.00,VWS V13.00,2013-03-16 16:59:00,
2013-03-16 12:04:00,68.5,42.6,29.92,WNW,283,12.0,19.0,39,0.00,,SKC,0.00,VWS V13.00,2013-03-16 17:04:00,
2013-03-16 12:09:00,68.7,42.8,29.91,WSW,250,13.0,19.0,39,0.00,,SKC,0.00,VWS V13.00,2013-03-16 17:09:00,
2013-03-16 12:14:00,68.8,44.2,29.91,WNW,294,11.0,20.0,41,0.00,,SKC,0.00,VWS V13.00,2013-03-16 17:14:00,
2013-03-16 12:19:00,69.3,45.9,29.91,WNW,293,11.0,20.0,43,0.00,,SKC,0.00,VWS V13.00,2013-03-16 17:19:00,
2013-03-16 12:24:00,69.7,43.0,29.91,WNW,298,13.0,20.0,38,0.00,,SKC,0.00,VWS V13.00,2013-03-16 17:24:00,
2013-03-16 12:29:00,69.6,43.6,29.91,WNW,298,9.0,20.0,39,0.00,,SKC,0.00,VWS V13.00,2013-03-16 17:29:00,
2013-03-16 12:34:00,70.1,43.3,29.91,WNW,284,11.0,16.0,38,0.00,,SKC,0.00,VWS V13.00,2013-03-16 17:34:00,
2013-03-16 12:39:00,70.3,43.5,29.90,WSW,252,11.0,18.0,38,0.00,,SKC,0.00,VWS V13.00,2013-03-16 17:39:00,
2013-03-16 12:44:00,70.5,43.7,29.90,West,277,13.0,18.0,38,0.00,,SKC,0.00,VWS V13.00,2013-03-16 17:44:00,
2013-03-16 12:49:00,70.6,44.5,29.90,West,280,8.0,19.0,39,0.00,,SKC,0.00,VWS V13.00,2013-03-16 17:49:00,
2013-03-16 12:54:00,70.4,44.3,29.90,NW,324,13.0,22.0,39,0.00,,SKC,0.00,VWS V13.00,2013-03-16 17:54:00,
2013-03-16 12:59:00,70.6,44.5,29.90,WSW,254,10.0,22.0,39,0.00,,SKC,0.00,VWS V13.00,2013-03-16 17:59:00,
2013-03-16 13:04:00,70.4,43.6,29.90,West,279,12.0,22.0,38,0.00,,SKC,0.00,VWS V13.00,2013-03-16 18:04:00,
2013-03-16 13:09:00,70.6,43.8,29.90,West,281,10.0,22.0,38,0.00,,SKC,0.00,VWS V13.00,2013-03-16 18:09:00,
2013-03-16 13:14:00,71.1,44.9,29.90,WSW,240,12.0,22.0,39,0.00,,SKC,0.00,VWS V13.00,2013-03-16 18:14:00,
2013-03-16 13:19:00,71.0,44.1,29.89,SW,236,8.0,22.0,38,0.00,,SKC,0.00,VWS V13.00,2013-03-16 18:19:00,
2013-03-16 13:24:00,71.5,45.3,29.89,West,261,14.0,22.0,39,0.00,,SKC,0.00,VWS V13.00,2013-03-16 18:24:00,
2013-03-16 13:29:00,71.2,43.6,29.89,WNW,299,16.0,23.0,37,0.00,,SKC,0.00,VWS V13.00,2013-03-16 18:29:00,
2013-03-16 13:34:00,71.4,43.8,29.89,WSW,248,11.0,19.0,37,0.00,,SKC,0.00,VWS V13.00,2013-03-16 18:34:00,
2013-03-16 13:39:00,71.7,44.8,29.88,WSW,243,9.0,19.0,38,0.00,,SKC,0.00,VWS V13.00,2013-03-16 18:39:00,
2013-03-16 13:44:00,71.9,44.9,29.88,West,259,8.0,19.0,38,0.00,,SKC,0.00,VWS V13.00,2013-03-16 18:44:00,
2013-03-16 13:49:00,72.2,45.2,29.88,West,263,11.0,19.0,38,0.00,,SKC,0.00,VWS V13.00,2013-03-16 18:49:00,
2013-03-16 13:54:00,72.2,45.2,29.88,SW,236,9.0,20.0,38,0.00,,SKC,0.00,VWS V13.00,2013-03-16 18:54:00,
2013-03-16 13:59:00,72.3,44.6,29.87,WSW,256,11.0,20.0,37,0.00,,SKC,0.00,VWS V13.00,2013-03-16 18:59:00,
2013-03-16 14:04:00,73.0,45.2,29.87,WSW,258,12.0,14.0,37,0.00,,SKC,0.00,VWS V13.00,2013-03-16 19:04:00,
2013-03-16 14:09:00,72.8,45.7,29.87,SSW,212,6.0,16.0,38,0.00,,SKC,0.00,VWS V13.00,2013-03-16 19:09:00,
2013-03-16 14:14:00,73.3,46.9,29.87,SW,236,11.0,16.0,39,0.00,,SKC,0.00,VWS V13.00,2013-03-16 19:14:00,
2013-03-16 14:19:00,73.3,46.2,29.87,West,263,14.0,20.0,38,0.00,,SKC,0.00,VWS V13.00,2013-03-16 19:19:00,
2013-03-16 14:24:00,73.4,45.6,29.86,West,260,9.0,20.0,37,0.00,,SKC,0.00,VWS V13.00,2013-03-16 19:24:00,
2013-03-16 14:29:00,73.9,45.3,29.86,West,260,9.0,20.0,36,0.00,,SKC,0.00,VWS V13.00,2013-03-16 19:29:00,
2013-03-16 14:34:00,73.9,45.3,29.86,West,271,7.0,18.0,36,0.00,,SKC,0.00,VWS V13.00,2013-03-16 19:34:00,
2013-03-16 14:39:00,73.3,44.8,29.86,WSW,245,13.0,22.0,36,0.00,,SKC,0.00,VWS V13.00,2013-03-16 19:39:00,
2013-03-16 14:44:00,73.3,46.2,29.86,WSW,256,11.0,22.0,38,0.00,,SKC,0.00,VWS V13.00,2013-03-16 19:44:00,
2013-03-16 14:49:00,73.6,45.8,29.86,West,263,7.0,22.0,37,0.00,,SKC,0.00,VWS V13.00,2013-03-16 19:49:00,
2013-03-16 14:54:00,73.7,45.1,29.86,WSW,257,8.0,22.0,36,0.00,,SKC,0.00,VWS V13.00,2013-03-16 19:54:00,
2013-03-16 14:59:00,74.0,44.6,29.86,West,272,10.0,22.0,35,0.00,,SKC,0.00,VWS V13.00,2013-03-16 19:59:00,
2013-03-16 15:04:00,73.6,45.0,29.86,West,269,10.0,21.0,36,0.00,,SKC,0.00,VWS V13.00,2013-03-16 20:04:00,
2013-03-16 15:09:00,73.8,45.2,29.86,WNW,297,11.0,21.0,36,0.00,,SKC,0.00,VWS V13.00,2013-03-16 20:09:00,
2013-03-16 15:14:00,73.9,46.7,29.85,West,268,8.0,21.0,38,0.00,,SKC,0.00,VWS V13.00,2013-03-16 20:14:00,
2013-03-16 15:19:00,74.0,46.1,29.85,WSW,248,8.0,23.0,37,0.00,,SKC,0.00,VWS V13.00,2013-03-16 20:19:00,
2013-03-16 15:24:00,73.8,45.2,29.85,SW,221,11.0,23.0,36,0.00,,SKC,0.00,VWS V13.00,2013-03-16 20:24:00,
2013-03-16 15:29:00,74.0,46.1,29.86,West,267,7.0,23.0,37,0.00,,SKC,0.00,VWS V13.00,2013-03-16 20:29:00,
2013-03-16 15:34:00,74.0,45.4,29.86,WSW,257,8.0,16.0,36,0.00,,SKC,0.00,VWS V13.00,2013-03-16 20:34:00,
2013-03-16 15:39:00,74.0,46.8,29.85,SW,225,15.0,20.0,38,0.00,,SKC,0.00,VWS V13.00,2013-03-16 20:39:00,
2013-03-16 15:44:00,74.1,46.2,29.85,WSW,258,13.0,21.0,37,0.00,,SKC,0.00,VWS V13.00,2013-03-16 20:44:00,
2013-03-16 15:49:00,74.3,46.4,29.85,West,278,8.0,21.0,37,0.00,,SKC,0.00,VWS V13.00,2013-03-16 20:49:00,
2013-03-16 15:54:00,74.1,45.5,29.85,WNW,283,13.0,21.0,36,0.00,,SKC,0.00,VWS V13.00,2013-03-16 20:54:00,
2013-03-16 15:59:00,74.0,45.4,29.85,SW,217,12.0,21.0,36,0.00,,SKC,0.00,VWS V13.00,2013-03-16 20:59:00,
2013-03-16 16:04:00,73.9,47.4,29.85,WSW,246,11.0,12.0,39,0.00,,SKC,0.00,VWS V13.00,2013-03-16 21:04:00,
2013-03-16 16:09:00,74.2,46.3,29.85,West,262,11.0,18.0,37,0.00,,SKC,0.00,VWS V13.00,2013-03-16 21:09:00,
2013-03-16 16:14:00,73.8,45.9,29.85,WNW,286,9.0,21.0,37,0.00,,SKC,0.00,VWS V13.00,2013-03-16 21:14:00,
2013-03-16 16:19:00,74.0,47.5,29.85,West,274,9.0,21.0,39,0.00,,SKC,0.00,VWS V13.00,2013-03-16 21:19:00,
2013-03-16 16:24:00,74.1,46.9,29.85,West,260,10.0,21.0,38,0.00,,SKC,0.00,VWS V13.00,2013-03-16 21:24:00,
2013-03-16 16:29:00,74.0,46.8,29.85,WSW,242,15.0,21.0,38,0.00,,SKC,0.00,VWS V13.00,2013-03-16 21:29:00,
2013-03-16 16:34:00,74.0,46.8,29.85,West,270,7.0,12.0,38,0.00,,SKC,0.00,VWS V13.00,2013-03-16 21:34:00,
2013-03-16 16:39:00,74.3,46.4,29.84,SW,215,9.0,15.0,37,0.00,,SKC,0.00,VWS V13.00,2013-03-16 21:39:00,
2013-03-16 16:44:00,74.0,46.8,29.85,WSW,244,7.0,18.0,38,0.00,,SKC,0.00,VWS V13.00,2013-03-16 21:44:00,
2013-03-16 16:49:00,73.3,46.2,29.85,SW,234,8.0,19.0,38,0.00,,SKC,0.00,VWS V13.00,2013-03-16 21:49:00,
2013-03-16 16:54:00,73.4,47.6,29.85,WNW,296,7.0,19.0,40,0.00,,SKC,0.00,VWS V13.00,2013-03-16 21:54:00,
2013-03-16 16:59:00,73.4,47.0,29.85,West,261,9.0,19.0,39,0.00,,SKC,0.00,VWS V13.00,2013-03-16 21:59:00,
2013-03-16 17:04:00,73.2,46.8,29.85,West,267,9.0,14.0,39,0.00,,SKC,0.00,VWS V13.00,2013-03-16 22:04:00,
2013-03-16 17:09:00,73.2,47.5,29.85,WSW,245,7.0,14.0,40,0.00,,SKC,0.00,VWS V13.00,2013-03-16 22:09:00,
2013-03-16 17:14:00,73.4,47.6,29.85,West,267,6.0,14.0,40,0.00,,SKC,0.00,VWS V13.00,2013-03-16 22:14:00,
2013-03-16 17:19:00,73.4,47.6,29.85,West,277,8.0,15.0,40,0.00,,SKC,0.00,VWS V13.00,2013-03-16 22:19:00,
2013-03-16 17:24:00,73.0,47.3,29.85,WSW,240,6.0,15.0,40,0.00,,SKC,0.00,VWS V13.00,2013-03-16 22:24:00,
2013-03-16 17:29:00,72.3,47.3,29.85,West,271,3.0,15.0,41,0.00,,SKC,0.00,VWS V13.00,2013-03-16 22:29:00,
2013-03-16 17:34:00,72.0,47.7,29.85,WSW,244,4.0,12.0,42,0.00,,SKC,0.00,VWS V13.00,2013-03-16 22:34:00,
2013-03-16 17:39:00,71.9,47.6,29.85,West,265,6.0,16.0,42,0.00,,SKC,0.00,VWS V13.00,2013-03-16 22:39:00,
2013-03-16 17:44:00,71.8,47.5,29.85,WSW,254,6.0,16.0,42,0.00,,SKC,0.00,VWS V13.00,2013-03-16 22:44:00,
2013-03-16 17:49:00,71.8,48.1,29.85,West,279,7.0,16.0,43,0.00,,SKC,0.00,VWS V13.00,2013-03-16 22:49:00,
2013-03-16 17:54:00,71.7,48.0,29.86,WSW,250,5.0,16.0,43,0.00,,SKC,0.00,VWS V13.00,2013-03-16 22:54:00,
2013-03-16 17:59:00,71.6,47.9,29.86,West,271,6.0,16.0,43,0.00,,SKC,0.00,VWS V13.00,2013-03-16 22:59:00,
2013-03-16 18:04:00,71.7,48.7,29.86,West,281,4.0,9.0,44,0.00,,SKC,0.00,VWS V13.00,2013-03-16 23:04:00,
2013-03-16 18:09:00,71.6,48.6,29.86,WNW,284,11.0,13.0,44,0.00,,SKC,0.00,VWS V13.00,2013-03-16 23:09:00,
2013-03-16 18:14:00,71.3,48.3,29.86,West,279,8.0,13.0,44,0.00,,SKC,0.00,VWS V13.00,2013-03-16 23:14:00,
2013-03-16 18:19:00,71.1,48.7,29.86,WSW,248,7.0,13.0,45,0.00,,SKC,0.00,VWS V13.00,2013-03-16 23:19:00,
2013-03-16 18:24:00,70.8,48.4,29.86,WSW,239,8.0,13.0,45,0.00,,SKC,0.00,VWS V13.00,2013-03-16 23:24:00,
2013-03-16 18:29:00,70.5,48.8,29.86,SW,218,4.0,15.0,46,0.00,,SKC,0.00,VWS V13.00,2013-03-16 23:29:00,
2013-03-16 18:34:00,70.0,48.3,29.86,WSW,251,5.0,8.0,46,0.00,,SKC,0.00,VWS V13.00,2013-03-16 23:34:00,
2013-03-16 18:39:00,69.5,48.4,29.86,SW,221,5.0,11.0,47,0.00,,SKC,0.00,VWS V13.00,2013-03-16 23:39:00,
2013-03-16 18:44:00,69.3,47.7,29.86,SW,225,2.0,11.0,46,0.00,,SKC,0.00,VWS V13.00,2013-03-16 23:44:00,
2013-03-16 18:49:00,69.0,48.0,29.86,SW,224,6.0,11.0,47,0.00,,SKC,0.00,VWS V13.00,2013-03-16 23:49:00,
2013-03-16 18:54:00,68.6,48.7,29.86,SW,223,5.0,11.0,49,0.00,,SKC,0.00,VWS V13.00,2013-03-16 23:54:00,
2013-03-16 18:59:00,68.3,48.4,29.86,SSW,206,1.0,11.0,49,0.00,,SKC,0.00,VWS V13.00,2013-03-16 23:59:00,
2013-03-16 19:04:00,67.9,48.1,29.86,SW,221,3.0,6.0,49,0.00,,SKC,0.00,VWS V13.00,2013-03-17 00:04:00,
2013-03-16 19:09:00,67.5,48.8,29.86,SW,230,2.0,6.0,51,0.00,,SKC,0.00,VWS V13.00,2013-03-17 00:09:00,
2013-03-16 19:14:00,67.0,48.3,29.86,WSW,240,4.0,7.0,51,0.00,,SKC,0.00,VWS V13.00,2013-03-17 00:14:00,
2013-03-16 19:19:00,66.7,48.5,29.86,SSW,213,0.0,7.0,52,0.00,,SKC,0.00,VWS V13.00,2013-03-17 00:19:00,
2013-03-16 19:24:00,66.3,48.7,29.86,WSW,240,0.0,7.0,53,0.00,,SKC,0.00,VWS V13.00,2013-03-17 00:24:00,
2013-03-16 19:29:00,65.8,48.2,29.87,WSW,237,0.0,7.0,53,0.00,,SKC,0.00,VWS V13.00,2013-03-17 00:29:00,
2013-03-16 19:34:00,65.5,48.4,29.87,WSW,237,0.0,0.0,54,0.00,,SKC,0.00,VWS V13.00,2013-03-17 00:34:00,
2013-03-16 19:38:00,65.0,48.0,29.87,WSW,237,0.0,0.0,54,0.00,,SKC,0.00,VWS V13.00,2013-03-17 00:38:00,
2013-03-16 19:43:00,64.4,47.9,29.87,WSW,237,0.0,0.0,55,0.00,,SKC,0.00,VWS V13.00,2013-03-17 00:43:00,
2013-03-16 19:48:00,63.7,48.2,29.87,WSW,237,0.0,0.0,57,0.00,,SKC,0.00,VWS V13.00,2013-03-17 00:48:00,
2013-03-16 19:53:00,63.2,48.2,29.87,SW,229,1.0,4.0,58,0.00,,SKC,0.00,VWS V13.00,2013-03-17 00:53:00,
2013-03-16 19:58:00,63.3,48.3,29.87,SSW,207,0.0,5.0,58,0.00,,SKC,0.00,VWS V13.00,2013-03-17 00:58:00,
2013-03-16 20:03:00,63.4,48.4,29.87,SW,217,0.0,2.0,58,0.00,,SKC,0.00,VWS V13.00,2013-03-17 01:03:00,
2013-03-16 20:09:00,63.6,48.1,29.87,SW,217,0.0,2.0,57,0.00,,SKC,0.00,VWS V13.00,2013-03-17 01:09:00,
2013-03-16 20:14:00,63.4,47.9,29.87,WSW,250,0.0,4.0,57,0.00,,SKC,0.00,VWS V13.00,2013-03-17 01:14:00,
2013-03-16 20:19:00,63.2,47.7,29.88,WSW,257,0.0,4.0,57,0.00,,SKC,0.00,VWS V13.00,2013-03-17 01:19:00,
2013-03-16 20:24:00,62.9,47.9,29.88,WSW,257,0.0,4.0,58,0.00,,SKC,0.00,VWS V13.00,2013-03-17 01:24:00,
2013-03-16 20:29:00,62.7,47.7,29.88,WSW,250,0.0,4.0,58,0.00,,SKC,0.00,VWS V13.00,2013-03-17 01:29:00,
2013-03-16 20:34:00,62.4,47.9,29.88,WSW,250,0.0,0.0,59,0.00,,SKC,0.00,VWS V13.00,2013-03-17 01:34:00,
2013-03-16 20:39:00,62.2,48.2,29.89,WSW,250,0.0,0.0,60,0.00,,SKC,0.00,VWS V13.00,2013-03-17 01:39:00,
2013-03-16 20:44:00,61.9,47.9,29.89,WSW,250,0.0,0.0,60,0.00,,SKC,0.00,VWS V13.00,2013-03-17 01:44:00,
2013-03-16 20:49:00,61.7,47.7,29.89,WSW,250,0.0,0.0,60,0.00,,SKC,0.00,VWS V13.00,2013-03-17 01:49:00,
2013-03-16 20:54:00,61.5,47.9,29.89,WSW,250,0.0,0.0,61,0.00,,SKC,0.00,VWS V13.00,2013-03-17 01:54:00,
2013-03-16 20:59:00,61.3,47.8,29.89,WSW,250,0.0,0.0,61,0.00,,SKC,0.00,VWS V13.00,2013-03-17 01:59:00,
2013-03-16 21:04:00,61.1,47.6,29.89,WSW,250,0.0,0.0,61,0.00,,SKC,0.00,VWS V13.00,2013-03-17 02:04:00,
2013-03-16 21:09:00,61.0,47.5,29.89,WSW,249,0.0,1.0,61,0.00,,SKC,0.00,VWS V13.00,2013-03-17 02:09:00,
2013-03-16 21:14:00,61.0,47.5,29.90,WSW,249,0.0,1.0,61,0.00,,SKC,0.00,VWS V13.00,2013-03-17 02:14:00,
2013-03-16 21:19:00,60.9,47.8,29.90,WSW,249,0.0,1.0,62,0.00,,SKC,0.00,VWS V13.00,2013-03-17 02:19:00,
2013-03-16 21:24:00,60.7,47.6,29.90,WSW,249,0.0,1.0,62,0.00,,SKC,0.00,VWS V13.00,2013-03-17 02:24:00,
2013-03-16 21:29:00,60.7,47.6,29.90,WSW,249,0.0,1.0,62,0.00,,SKC,0.00,VWS V13.00,2013-03-17 02:29:00,
2013-03-16 21:34:00,60.5,47.4,29.90,WSW,249,0.0,0.0,62,0.00,,SKC,0.00,VWS V13.00,2013-03-17 02:34:00,
2013-03-16 21:39:00,60.3,47.7,29.91,WSW,249,0.0,0.0,63,0.00,,SKC,0.00,VWS V13.00,2013-03-17 02:39:00,
2013-03-16 21:44:00,60.0,47.4,29.91,WSW,249,0.0,0.0,63,0.00,,SKC,0.00,VWS V13.00,2013-03-17 02:44:00,
2013-03-16 21:49:00,59.8,47.2,29.91,WSW,249,0.0,0.0,63,0.00,,SKC,0.00,VWS V13.00,2013-03-17 02:49:00,
2013-03-16 21:54:00,59.6,47.4,29.91,WSW,249,0.0,0.0,64,0.00,,SKC,0.00,VWS V13.00,2013-03-17 02:54:00,
2013-03-16 21:59:00,59.5,47.3,29.91,WSW,249,0.0,0.0,64,0.00,,SKC,0.00,VWS V13.00,2013-03-17 02:59:00,
2013-03-16 22:04:00,59.3,47.1,29.91,WSW,249,0.0,0.0,64,0.00,,SKC,0.00,VWS V13.00,2013-03-17 03:04:00,
2013-03-16 22:09:00,59.2,47.5,29.91,WSW,249,0.0,0.0,65,0.00,,SKC,0.00,VWS V13.00,2013-03-17 03:09:00,
2013-03-16 22:14:00,59.1,47.0,29.91,WSW,249,0.0,0.0,64,0.00,,SKC,0.00,VWS V13.00,2013-03-17 03:14:00,
2013-03-16 22:19:00,59.3,47.1,29.91,WSW,249,0.0,0.0,64,0.00,,SKC,0.00,VWS V13.00,2013-03-17 03:19:00,
2013-03-16 22:24:00,59.4,47.2,29.92,WSW,246,0.0,2.0,64,0.00,,SKC,0.00,VWS V13.00,2013-03-17 03:24:00,
2013-03-16 22:29:00,59.5,47.3,29.91,WSW,246,2.0,2.0,64,0.00,,SKC,0.00,VWS V13.00,2013-03-17 03:29:00,
2013-03-16 22:34:00,59.7,47.1,29.91,WSW,239,1.0,2.0,63,0.00,,SKC,0.00,VWS V13.00,2013-03-17 03:34:00,
2013-03-16 22:39:00,59.9,47.3,29.92,WSW,239,0.0,2.0,63,0.00,,SKC,0.00,VWS V13.00,2013-03-17 03:39:00,
2013-03-16 22:44:00,59.7,47.1,29.91,WSW,239,0.0,2.0,63,0.00,,SKC,0.00,VWS V13.00,2013-03-17 03:44:00,
2013-03-16 22:49:00,59.3,47.1,29.92,WSW,239,0.0,2.0,64,0.00,,SKC,0.00,VWS V13.00,2013-03-17 03:49:00,
2013-03-16 22:54:00,58.9,46.8,29.92,WSW,239,0.0,2.0,64,0.00,,SKC,0.00,VWS V13.00,2013-03-17 03:54:00,
2013-03-16 22:59:00,58.7,47.0,29.92,WSW,239,0.0,2.0,65,0.00,,SKC,0.00,VWS V13.00,2013-03-17 03:59:00,
2013-03-16 23:00:00,58.6,46.9,29.92,WSW,239,0.0,2.0,65,0.00,,SKC,0.00,VWS V13.00,2013-03-17 04:00:00,
2013-03-16 23:05:00,58.5,46.8,29.91,SW,234,0.0,0.0,65,0.00,,SKC,0.00,VWS V13.00,2013-03-17 04:05:00,
2013-03-16 23:10:00,58.3,46.6,29.92,SW,234,0.0,1.0,65,0.00,,SKC,0.00,VWS V13.00,2013-03-17 04:10:00,
2013-03-16 23:15:00,58.2,46.5,29.91,SSW,209,0.0,3.0,65,0.00,,SKC,0.00,VWS V13.00,2013-03-17 04:15:00,
2013-03-16 23:20:00,58.1,46.8,29.92,SSW,209,0.0,3.0,66,0.00,,SKC,0.00,VWS V13.00,2013-03-17 04:20:00,
2013-03-16 23:25:00,57.8,46.5,29.92,SSW,210,0.0,3.0,66,0.00,,SKC,0.00,VWS V13.00,2013-03-17 04:25:00,
2013-03-16 23:30:00,57.5,46.2,29.92,SSW,210,0.0,3.0,66,0.00,,SKC,0.00,VWS V13.00,2013-03-17 04:30:00,
2013-03-16 23:35:00,57.3,46.0,29.92,SSW,210,0.0,0.0,66,0.00,,SKC,0.00,VWS V13.00,2013-03-17 04:35:00,
2013-03-16 23:40:00,57.0,46.2,29.92,SSW,210,0.0,0.0,67,0.00,,SKC,0.00,VWS V13.00,2013-03-17 04:40:00,
2013-03-16 23:45:00,56.6,46.2,29.92,SSW,210,0.0,0.0,68,0.00,,SKC,0.00,VWS V13.00,2013-03-17 04:45:00,
2013-03-16 23:50:00,56.3,45.9,29.91,SSW,210,0.0,1.0,68,0.00,,SKC,0.00,VWS V13.00,2013-03-17 04:50:00,
2013-03-16 23:55:00,56.0,46.0,29.91,SSW,210,0.0,1.0,69,0.00,,SKC,0.00,VWS V13.00,2013-03-17 04:55:00,